Location: Newark
(45.5167°N, 11.1667°E)
Time: 20:58:40
(UTC+00:00)

Explorer 11/Cluster Stage 4 - Visible Passes

Search period start: 15 December 2019 00:00
Search period end: 25 December 2019 00:00
Orbit: 467 x 1259 km, 28.8° (Epoch: 15 December)

Date Brightness Start Highest point End Pass type
(mag) Time Alt. Az. Time Alt. Az. Time Alt. Az.
16 Dec 10.0 06:06:47 10° S 06:10:04 13° SSE 06:13:16 10° SE visible
17 Dec 9.9 05:55:00 10° S 05:59:04 15° SSE 06:03:01 10° SE visible
18 Dec 9.8 05:43:26 10° SSW 05:48:02 16° SSE 05:52:33 10° SE visible
19 Dec 9.7 05:32:01 10° SSW 05:37:01 18° SSE 05:41:57 10° SE visible
20 Dec 9.6 05:20:43 10° SSW 05:25:58 19° SSE 05:31:14 10° SE visible
21 Dec 9.5 05:09:31 10° SSW 05:14:56 20° SSE 05:20:26 10° SE visible
22 Dec 9.7 03:14:26 10° SSE 03:16:07 11° SSE 03:17:49 10° SE visible
22 Dec 9.4 04:58:22 10° SSW 05:03:53 21° SSE 05:09:34 10° SE visible
23 Dec 9.5 03:03:44 11° SSE 03:05:05 12° SSE 03:07:38 10° SE visible
23 Dec 9.3 04:47:20 10° SW 04:52:52 21° S 04:58:38 10° SE visible
24 Dec 9.5 02:54:00 13° SSE 02:54:04 13° SSE 02:57:04 10° SE visible
24 Dec 9.2 04:36:21 10° SW 04:41:50 22° S 04:47:39 10° SE visible
